H1 CPF 2 NER 2021 3 11 9 070 01 glonass135 H2 1600801 9135 41330 2021 3 11 0 0 0 2021 3 14 23 45 0 900 1 1 0 0 0 1 H9 10 0 59284 0.00000 0 15036949.032 -2195851.884 20488787.380 10 0 59284 900.00000 0 17233753.897 -1166802.312 18767629.528 10 0 59284 1800.00000 0 19287558.357 -399445.847 16681901.587 10 0 59284 2700.00000 0 21133467.680 117657.613 14272003.462 10 0 59284 3600.00000 0 22712004.120 407906.274 11584668.566 10 0 59284 4500.00000 0 23971510.249 505436.898 8672062.487 10 0 59284 5400.00000 0 24870245.201 453445.893 5590772.207 10 0 59284 6300.00000 0 25378084.918 302121.994 2400705.180 10 0 59284 7200.00000 0 25477753.952 106278.498 -836080.034 10 0 59284 8100.00000 0 25165536.040 -77213.909 -4056588.300 10 0 59284 9000.00000 0 24451432.640 -192083.862 -7198123.123 10 0 59284 9900.00000 0 23358762.178 -185291.642 -10199517.259 10 0 59284 10800.00000 0 21923216.542 -9524.085 -13002333.654 10 0 59284 11700.00000 0 20191414.593 374555.146 -15552012.209 10 0 59284 12600.00000 0 18219013.885 996396.642 -17798938.986 10 0 59284 13500.00000 0 16068460.481 1874079.705 -19699416.449 10 0 59284 14400.00000 0 13806471.964 3013314.052 -21216515.479 10 0 59284 15300.00000 0 11501359.777 4406971.717 -22320792.533 10 0 59284 16200.00000 0 9220303.469 6035169.520 -22990858.325 10 0 59284 17100.00000 0 7026690.950 7865899.116 -23213787.474 10 0 59284 18000.00000 0 4977635.733 9856178.455 -22985361.841 10 0 59284 18900.00000 0 3121774.228 11953676.615 -22310143.576 10 0 59284 19800.00000 0 1497433.924 14098744.170 -21201377.164 10 0 59284 20700.00000 0 131247.662 16226764.268 -19680723.064 10 0 59284 21600.00000 0 -962729.936 18270726.354 -17777828.623 10 0 59284 22500.00000 0 -1783368.828 20163915.236 -15529744.995 10 0 59284 23400.00000 0 -2342260.205 21842603.369 -12980201.727 10 0 59284 24300.00000 0 -2662973.988 23248634.273 -10178753.287 10 0 59284 25200.00000 0 -2779810.207 24331789.526 -7179814.211 10 0 59284 26100.00000 0 -2736098.386 25051840.865 -4041601.759 10 0 59284 27000.00000 0 -2582117.895 25380202.138 -825006.656 10 0 59284 27900.00000 0 -2372727.966 25301112.589 2407586.189 10 0 59284 28800.00000 0 -2164807.981 24812302.566 5593504.063 10 0 59284 29700.00000 0 -2014616.490 23925114.311 8670996.668 10 0 59284 30600.00000 0 -1975180.545 22664073.236 11580427.030 10 0 59284 31500.00000 0 -2093825.470 21065927.844 14265420.285 10 0 59284 32400.00000 0 -2409949.181 19178198.456 16673948.705 10 0 59284 33300.00000 0 -2953134.827 17057295.090 18759332.603 10 0 59284 34200.00000 0 -3741681.308 14766282.554 20481138.426 10 0 59284 35100.00000 0 -4781613.912 12372385.098 21805957.470 10 0 59284 36000.00000 0 -6066217.364 9944333.597 22708050.797 10 0 59284 36900.00000 0 -7576111.992 7549664.559 23169848.381 10 0 59284 37800.00000 0 -9279871.329 5252082.172 23182293.095 10 0 59284 38700.00000 0 -11135157.081 3108991.908 22745022.850 10 0 59284 39600.00000 0 -13090325.915 1169307.403 21866386.943 10 0 59284 40500.00000 0 -15086442.866 -528378.988 20563295.592 10 0 59284 41400.00000 0 -17059619.070 -1957186.309 18860904.570 10 0 59284 42300.00000 0 -18943577.546 -3102838.111 16792139.853 10 0 59284 43200.00000 0 -20672340.828 -3964021.444 14397070.274 10 0 59284 44100.00000 0 -22182928.549 -4552196.758 11722139.105 10 0 59284 45000.00000 0 -23417951.935 -4890866.722 8819268.576 10 0 59284 45900.00000 0 -24327995.959 -5014334.820 5744854.019 10 0 59284 46800.00000 0 -24873688.269 -4966006.327 2558666.907 10 0 59284 47700.00000 0 -25027366.759 -4796303.874 -677311.696 10 0 59284 48600.00000 0 -24774274.422 -4560286.500 -3900104.012 10 0 59284 49500.00000 0 -24113229.982 -4315074.017 -7046970.327 10 0 59284 50400.00000 0 -23056745.060 -4117187.032 -10056640.427 10 0 59284 51300.00000 0 -21630582.253 -4019916.712 -12870516.545 10 0 59284 52200.00000 0 -19872772.318 -4070837.223 -15433823.312 10 0 59284 53100.00000 0 -17832131.783 -4309567.520 -17696681.223 10 0 59284 54000.00000 0 -15566343.483 -4765878.490 -19615082.130 10 0 59284 54900.00000 0 -13139680.920 -5458226.482 -21151747.391 10 0 59284 55800.00000 0 -10620472.323 -6392775.936 -22276851.917 10 0 59284 56700.00000 0 -8078410.843 -7562952.874 -22968600.349 10 0 59284 57600.00000 0 -5581823.448 -8949548.433 -23213644.694 10 0 59284 58500.00000 0 -3195012.463 -10521368.245 -23007335.951 10 0 59284 59400.00000 0 -975780.127 -12236400.477 -22353805.601 10 0 59284 60300.00000 0 1026761.519 -14043453.610 -21265876.100 10 0 59284 61200.00000 0 2774005.273 -15884195.245 -19764802.750 10 0 59284 62100.00000 0 4239213.866 -17695506.624 -17879852.529 10 0 59284 63000.00000 0 5408380.418 -19412054.361 -15647728.407 10 0 59284 63900.00000 0 6280550.203 -20968971.805 -13111850.692 10 0 59284 64800.00000 0 6867592.410 -22304538.007 -10321509.532 10 0 59284 65700.00000 0 7193433.475 -23362742.386 -7330905.131 10 0 59284 66600.00000 0 7292785.983 -24095627.963 -4198094.497 10 0 59284 67500.00000 0 7209428.265 -24465315.395 -983865.173 10 0 59284 68400.00000 0 6994108.365 -24445623.398 2249442.179 10 0 59284 69300.00000 0 6702161.704 -24023218.045 5439139.422 10 0 59284 70200.00000 0 6390943.493 -23198243.141 8523401.632 10 0 59284 71100.00000 0 6117184.518 -21984405.518 11442459.568 10 0 59284 72000.00000 0 5934381.887 -20408511.755 14139751.133 10 0 59284 72900.00000 0 5890334.632 -18509475.589 16563010.075 10 0 59284 73800.00000 0 6024927.870 -16336837.069 18665271.530 10 0 59284 74700.00000 0 6368258.714 -13948854.643 20405775.584 10 0 59284 75600.00000 0 6939182.831 -11410248.797 21750752.210 10 0 59284 76500.00000 0 7744343.115 -8789690.026 22674073.046 10 0 59284 77400.00000 0 8777721.898 -6157134.441 23157757.922 10 0 59284 78300.00000 0 10020736.591 -3581116.385 23192326.616 10 0 59284 79200.00000 0 11442876.127 -1126109.261 22776989.033 10 0 59284 80100.00000 0 13002853.208 1149936.915 21919669.706 10 0 59284 81000.00000 0 14650225.889 3197779.863 20636865.482 10 0 59284 81900.00000 0 16327422.392 4978701.193 18953338.121 10 0 59284 82800.00000 0 17972085.890 6465879.135 16901646.608 10 0 59284 83700.00000 0 19519642.249 7645260.900 14521526.997 10 0 59284 84600.00000 0 20905983.852 8515898.341 11859130.570 10 0 59284 85500.00000 0 22070157.071 9089732.857 8966134.188 10 0 59285 0.00000 0 22956940.278 9390838.708 5898739.459 10 0 59285 900.00000 0 23519202.925 9454156.777 2716579.439 10 0 59285 1800.00000 0 23719946.240 9323772.614 -518444.638 10 0 59285 2700.00000 0 23533936.521 9050812.020 -3743374.798 10 0 59285 3600.00000 0 22948862.792 8691044.275 -6895430.552 10 0 59285 4500.00000 0 21965967.299 8302295.408 -9913241.058 10 0 59285 5400.00000 0 20600121.896 7941782.474 -12738050.033 10 0 59285 6300.00000 0 18879346.066 7663483.062 -15314868.827 10 0 59285 7200.00000 0 16843786.497 7515652.742 -17593554.148 10 0 59285 8100.00000 0 14544200.928 7538596.694 -19529788.810 10 0 59285 9000.00000 0 12040009.888 7762790.747 -21085946.038 10 0 59285 9900.00000 0 9396998.301 8207431.839 -22231820.425 10 0 59285 10800.00000 0 6684763.264 8879479.575 -22945211.610 10 0 59285 11700.00000 0 3974014.737 9773229.428 -23212349.883 10 0 59285 12600.00000 0 1333841.777 10870435.557 -23028156.049 10 0 59285 13500.00000 0 -1170942.152 12140977.941 -22396331.309 10 0 59285 14400.00000 0 -3482264.893 13544045.628 -21329276.118 10 0 59285 15300.00000 0 -5550970.642 15029786.150 -19847840.255 10 0 59285 16200.00000 0 -7338615.114 16541351.745 -17980909.534 10 0 59285 17100.00000 0 -8818807.694 18017256.416 -15764837.524 10 0 59285 18000.00000 0 -9978046.372 19393944.872 -13242733.669 10 0 59285 18900.00000 0 -10816012.640 20608465.654 -10463621.821 10 0 59285 19800.00000 0 -11345316.037 21601136.378 -7481485.579 10 0 59285 20700.00000 0 -11590700.953 22318089.417 -4354219.174 10 0 59285 21600.00000 0 -11587750.809 22713591.416 -1142504.260 10 0 59285 22500.00000 0 -11381145.596 22752039.514 2091365.563 10 0 59285 23400.00000 0 -11022547.270 22409550.743 5284689.648 10 0 59285 24300.00000 0 -10568202.945 21675078.116 8375571.368 10 0 59285 25200.00000 0 -10076367.379 20551006.688 11304112.119 10 0 59285 26100.00000 0 -9604653.561 19053204.575 14013565.409 10 0 59285 27000.00000 0 -9207422.980 17210526.554 16451429.188 10 0 59285 27900.00000 0 -8933325.263 15063790.426 18570455.981 10 0 59285 28800.00000 0 -8823090.463 12664268.201 20329561.891 10 0 59285 29700.00000 0 -8907666.641 10071753.944 21694617.694 10 0 59285 30600.00000 0 -9206780.986 7352287.444 22639107.447 10 0 59285 31500.00000 0 -9727985.116 4575627.059 23144642.319 10 0 59285 32400.00000 0 -10466225.236 1812575.202 23201320.079 10 0 59285 33300.00000 0 -11403956.084 -867733.949 22807923.241 10 0 59285 34200.00000 0 -12511795.137 -3400473.173 21971951.676 10 0 59285 35100.00000 0 -13749691.100 -5727578.957 20709488.403 10 0 59285 36000.00000 0 -15068559.273 -7799925.093 19044900.140 10 0 59285 36900.00000 0 -16412316.658 -9579123.222 17010377.285 10 0 59285 37800.00000 0 -17720232.675 -11038875.692 14645320.988 10 0 59285 38700.00000 0 -18929497.684 -12165824.428 11995587.952 10 0 59285 39600.00000 0 -19977901.730 -12959860.260 9112606.692 10 0 59285 40500.00000 0 -20806510.748 -13433879.790 6052381.674 10 0 59285 41400.00000 0 -21362226.934 -13613000.139 2874404.342 10 0 59285 42300.00000 0 -21600124.336 -13533264.805 -359507.591 10 0 59285 43200.00000 0 -21485459.859 -13239895.804 -3586419.560 10 0 59285 44100.00000 0 -20995273.339 -12785166.640 -6743513.862 10 0 59285 45000.00000 0 -20119507.699 -12225987.031 -9769322.502 10 0 59285 45900.00000 0 -18861600.573 -11621302.797 -12604934.002 10 0 59285 46800.00000 0 -17238521.316 -11029422.231 -15195149.538 10 0 59285 47700.00000 0 -15280251.035 -10505383.343 -17489564.840 10 0 59285 48600.00000 0 -13028726.987 -10098474.507 -19443556.098 10 0 59285 49500.00000 0 -10536295.350 -9850014.229 -21019150.333 10 0 59285 50400.00000 0 -7863737.243 -9791484.457 -22185763.173 10 0 59285 51300.00000 0 -5077950.594 -9943096.525 -22920790.002 10 0 59285 52200.00000 0 -2249384.697 -10312850.241 -23210039.485 10 0 59285 53100.00000 0 550665.519 -10896125.513 -23048001.719 10 0 59285 54000.00000 0 3252793.085 -11675823.344 -22437946.539 10 0 59285 54900.00000 0 5792127.196 -12623049.754 -21391850.825 10 0 59285 55800.00000 0 8110786.557 -13698313.373 -19930156.837 10 0 59285 56700.00000 0 10160036.925 -14853185.895 -18081366.864 10 0 59285 57600.00000 0 11902064.427 -16032355.229 -15881482.403 10 0 59285 58500.00000 0 13311292.339 -17175984.753 -13373299.103 10 0 59285 59400.00000 0 14375188.220 -18222279.361 -10605571.359 10 0 59285 60300.00000 0 15094529.618 -19110150.360 -7632062.835 10 0 59285 61200.00000 0 15483119.064 -19781867.171 -4510501.552 10 0 59285 62100.00000 0 15566962.168 -20185584.472 -1301459.819 10 0 59285 63000.00000 0 15382944.916 -20277638.620 1932819.231 10 0 59285 63900.00000 0 14977067.092 -20024516.956 5129625.671 10 0 59285 64800.00000 0 14402307.192 -19404417.347 8226994.146 10 0 59285 65700.00000 0 13716209.345 -18408332.462 11164899.343 10 0 59285 66600.00000 0 12978294.175 -17040613.156 13886412.625 10 0 59285 67500.00000 0 12247402.601 -15318987.010 16338797.982 10 0 59285 68400.00000 0 11579084.138 -13274030.639 18474526.715 10 0 59285 69300.00000 0 11023139.154 -10948116.996 20252191.871 10 0 59285 70200.00000 0 10621417.955 -8393880.450 21637305.528 10 0 59285 71100.00000 0 10405968.828 -5672262.173 22602964.217 10 0 59285 72000.00000 0 10397612.566 -2850215.693 23130370.116 10 0 59285 72900.00000 0 10605003.422 1833.726 23209198.267 10 0 59285 73800.00000 0 11024216.290 2812672.043 22837802.747 10 0 59285 74700.00000 0 11638878.145 5513011.791 22023257.431 10 0 59285 75600.00000 0 12420839.303 8038128.483 20781229.924 10 0 59285 76500.00000 0 13331357.508 10330309.618 19135690.116 10 0 59285 77400.00000 0 14322746.418 12341015.119 17118457.863 10 0 59285 78300.00000 0 15340420.396 14032659.713 14768597.310 10 0 59285 79200.00000 0 16325250.556 15379943.094 12131668.361 10 0 59285 80100.00000 0 17216133.402 16370672.170 9258848.855 10 0 59285 81000.00000 0 17952663.953 17006040.912 6205943.776 10 0 59285 81900.00000 0 18477800.209 17300355.969 3032300.349 10 0 59285 82800.00000 0 18740405.621 17280219.613 -200349.680 10 0 59285 83700.00000 0 18697561.013 16983204.751 -3429097.613 10 0 59285 84600.00000 0 18316546.756 16456078.431 -6591090.900 10 0 59285 85500.00000 0 17576409.933 15752649.666 -9624766.596 10 0 59286 0.00000 0 16469048.811 14931333.584 -12471059.959 10 0 59286 900.00000 0 14999767.005 14052536.177 -15074563.842 10 0 59286 1800.00000 0 13187274.152 13175970.899 -17384614.443 10 0 59286 2700.00000 0 11063130.124 12358022.686 -19356282.583 10 0 59286 3600.00000 0 8670657.555 11649270.359 -20951250.154 10 0 59286 4500.00000 0 6063366.719 11092273.587 -22138554.732 10 0 59286 5400.00000 0 3302959.045 10719717.544 -22895188.205 10 0 59286 6300.00000 0 456992.401 10552993.511 -23206538.228 10 0 59286 7200.00000 0 -2403694.419 10601274.800 -23066664.603 10 0 59286 8100.00000 0 -5207690.962 10861126.241 -22478405.965 10 0 59286 9000.00000 0 -7885745.767 11316662.898 -21453315.451 10 0 59286 9900.00000 0 -10373405.338 11940250.457 -20011427.270 10 0 59286 10800.00000 0 -12613452.564 12693717.000 -18180859.261 10 0 59286 11700.00000 0 -14558044.273 13530024.464 -15997259.543 10 0 59286 12600.00000 0 -16170460.207 14395328.817 -13503108.330 10 0 59286 13500.00000 0 -17426392.066 15231341.805 -10746888.637 10 0 59286 14400.00000 0 -18314720.572 15977894.540 -7782142.063 10 0 59286 15300.00000 0 -18837749.689 16575594.779 -4666428.126 10 0 59286 16200.00000 0 -19010890.003 16968465.960 -1460207.399 10 0 59286 17100.00000 0 -18861806.092 17106456.820 1774329.923 10 0 59286 18000.00000 0 -18429065.057 16947716.008 4974467.158 10 0 59286 18900.00000 0 -17760344.134 16460535.965 8078172.801 10 0 59286 19800.00000 0 -16910273.540 15624884.271 11025297.424 10 0 59286 20700.00000 0 -15938005.699 14433457.965 13758732.848 10 0 59286 21600.00000 0 -14904613.188 12892216.222 16225511.649 10 0 59286 22500.00000 0 -13870424.592 11020368.413 18377826.368 10 0 59286 23400.00000 0 -12892409.779 8849817.240 20173949.309 10 0 59286 24300.00000 0 -12021723.831 6424078.964 21579035.953 10 0 59286 25200.00000 0 -11301512.094 3796724.327 22565797.143 10 0 59286 26100.00000 0 -10765067.925 1029403.452 23115027.571 10 0 59286 27000.00000 0 -10434419.998 -1810464.913 23215980.700 10 0 59286 27900.00000 0 -10319408.376 -4652245.679 22866582.899 10 0 59286 28800.00000 0 -10417288.271 -7424776.840 22073482.322 10 0 59286 29700.00000 0 -10712878.688 -10059085.928 20851930.968 10 0 59286 30600.00000 0 -11179250.465 -12491021.932 19225501.205 10 0 59286 31500.00000 0 -11778925.766 -14663694.023 17225641.168 10 0 59286 32400.00000 0 -12465539.562 -16529616.160 14891076.350 10 0 59286 33300.00000 0 -13185893.991 -18052468.375 12267067.777 10 0 59286 34200.00000 0 -13882319.646 -19208400.986 9404540.175 10 0 59286 35100.00000 0 -14495244.365 -19986827.020 6359096.297 10 0 59286 36000.00000 0 -14965860.848 -20390669.292 3189936.174 10 0 59286 36900.00000 0 -15238779.679 -20436051.558 -41297.557 10 0 59286 37800.00000 0 -15264554.498 -20151446.762 -3271725.324 10 0 59286 38700.00000 0 -15001971.110 -19576318.519 -6438463.065 10 0 59286 39600.00000 0 -14420002.141 -18759313.692 -9479856.247 10 0 59286 40500.00000 0 -13499342.974 -17756083.188 -12336690.309 10 0 59286 41400.00000 0 -12233462.516 -16626824.016 -14953352.811 10 0 59286 42300.00000 0 -10629123.090 -15433647.509 -17278923.564 10 0 59286 43200.00000 0 -8706346.449 -14237885.875 -19268170.816 10 0 59286 44100.00000 0 -6497826.417 -13097451.618 -20882433.707 10 0 59286 45000.00000 0 -4047812.302 -12064361.799 -22090373.670 10 0 59286 45900.00000 0 -1410509.429 -11182531.728 -22868580.449 10 0 59286 46800.00000 0 1351936.577 -10485930.819 -23202021.465 10 0 59286 47700.00000 0 4171787.745 -9997177.780 -23084326.416 10 0 59286 48600.00000 0 6978296.299 -9726633.360 -22517902.380 10 0 59286 49500.00000 0 9700414.589 -9672027.792 -21513877.903 10 0 59286 50400.00000 0 12269520.005 -9818637.411 -20091877.831 10 0 59286 51300.00000 0 14622042.202 -10140001.815 -18279633.821 10 0 59286 52200.00000 0 16701884.214 -10599150.269 -16112438.472 10 0 59286 53100.00000 0 18462537.598 -11150284.718 -13632454.012 10 0 59286 54000.00000 0 19868804.820 -11740847.711 -10887889.142 10 0 59286 54900.00000 0 20898058.403 -12313887.472 -7932060.101 10 0 59286 55800.00000 0 21540985.706 -12810620.013 -4822354.323 10 0 59286 56700.00000 0 21801789.735 -13173079.963 -1619116.848 10 0 59286 57600.00000 0 21697839.047 -13346748.234 1615518.925 10 0 59286 58500.00000 0 21258782.746 -13283045.650 4818833.363 10 0 59286 59400.00000 0 20525168.852 -12941587.473 7928732.404 10 0 59286 60300.00000 0 19546624.916 -12292103.756 10884945.775 10 0 59286 61200.00000 0 18379677.789 -11315944.623 13630188.595 10 0 59286 62100.00000 0 17085304.343 -10007106.853 16111264.396 10 0 59286 63000.00000 0 15726315.798 -8372738.117 18280088.809 10 0 59286 63900.00000 0 14364685.026 -6433096.926 20094614.731 10 0 59286 64800.00000 0 13058928.275 -4220968.821 21519641.880 10 0 59286 65700.00000 0 11861650.292 -1780561.672 22527495.772 10 0 59286 66600.00000 0 10817354.937 834075.436 23098563.521 10 0 59286 67500.00000 0 9960612.298 3561045.849 23221676.490 10 0 59286 68400.00000 0 9314658.561 6332930.532 22894332.416 10 0 59286 69300.00000 0 8890487.071 9079349.984 22122752.445 10 0 59286 70200.00000 0 8686468.710 11729658.150 20921771.334 10 0 59286 71100.00000 0 8688517.840 14215657.842 19314562.017 10 0 59286 72000.00000 0 8870797.397 16474225.668 17332198.729 10 0 59286 72900.00000 0 9196934.133 18449737.906 15013065.932 10 0 59286 73800.00000 0 9621693.513 20096196.422 12402123.220 10 0 59286 74700.00000 0 10093044.181 21378965.701 9550039.501 10 0 59286 75600.00000 0 10554525.075 22276048.003 6512212.499 10 0 59286 76500.00000 0 10947815.073 22778842.734 3347692.186 10 0 59286 77400.00000 0 11215395.961 22892357.677 118029.228 10 0 59286 78300.00000 0 11303195.066 22634862.893 -3113928.740 10 0 59286 79200.00000 0 11163094.443 22037001.799 -6285268.797 10 0 59286 80100.00000 0 10755198.827 21140397.120 -9334247.256 10 0 59286 81000.00000 0 10049764.788 19995811.014 -12201501.842 10 0 59286 81900.00000 0 9028707.821 18660937.782 -14831216.773 10 0 59286 82800.00000 0 7686622.234 17197923.187 -17172216.963 10 0 59286 83700.00000 0 6031269.504 15670715.987 -19178969.313 10 0 59286 84600.00000 0 4083513.429 14142364.122 -20812471.196 10 0 59286 85500.00000 0 1876704.046 12672370.111 -22041008.652 10 0 59287 0.00000 0 -544464.365 11314217.195 -22840769.831 10 0 59287 900.00000 0 -3125574.166 10113170.397 -23196302.272 10 0 59287 1800.00000 0 -5804515.745 9104443.635 -23100805.679 10 0 59287 2700.00000 0 -8513845.984 8311810.528 -22556255.383 10 0 59287 3600.00000 0 -11183375.004 7746714.198 -21573354.827 10 0 59287 4500.00000 0 -13742874.034 7407913.458 -20171318.606 10 0 59287 5400.00000 0 -16124792.131 7281678.064 -18377490.936 10 0 59287 6300.00000 0 -18266869.323 7342523.495 -16226807.288 10 0 59287 7200.00000 0 -20114538.055 7554452.937 -13761110.010 10 0 59287 8100.00000 0 -21623013.864 7872652.937 -11028331.377 10 0 59287 9000.00000 0 -22758989.196 8245570.281 -8081560.006 10 0 59287 9900.00000 0 -23501860.736 8617281.760 -4978008.907 10 0 59287 10800.00000 0 -23844440.299 8930056.320 -1777905.206 10 0 59287 11700.00000 0 -23793120.719 9127001.124 1456676.905 10 0 59287 12600.00000 0 -23367490.987 9154679.684 4663017.266 10 0 59287 13500.00000 0 -22599417.821 8965591.517 7778961.706 10 0 59287 14400.00000 0 -21531633.005 8520408.676 10744121.551 10 0 59287 15300.00000 0 -20215886.300 7789874.851 13501037.657 10 0 59287 16200.00000 0 -18710741.674 6756286.862 15996286.871 10 0 59287 17100.00000 0 -17079109.124 5414495.820 18181510.165 10 0 59287 18000.00000 0 -15385615.154 3772385.282 20014343.098 10 0 59287 18900.00000 0 -13693921.386 1850805.325 21459231.447 10 0 59287 19800.00000 0 -12064102.625 -317036.077 22488116.925 10 0 59287 20700.00000 0 -10550193.198 -2686700.521 23080980.252 10 0 59287 21600.00000 0 -9198003.187 -5204120.393 23226231.510 10 0 59287 22500.00000 0 -8043295.066 -7807609.153 22920940.255 10 0 59287 23400.00000 0 -7110396.404 -10430198.959 22170900.693 10 0 59287 24300.00000 0 -6411306.314 -13002210.289 20990530.031 10 0 59287 25200.00000 0 -5945332.967 -15453948.267 19402601.072 10 0 59287 26100.00000 0 -5699277.535 -17718414.650 17437813.091 10 0 59287 27000.00000 0 -5648157.147 -19733923.306 15134208.082 10 0 59287 27900.00000 0 -5756436.837 -21446510.498 12536442.440 10 0 59287 28800.00000 0 -5979718.927 -22812039.112 9694927.199 10 0 59287 29700.00000 0 -6266818.767 -23797908.461 6664852.737 10 0 59287 30600.00000 0 -6562138.982 -24384297.370 3505116.447 10 0 59287 31500.00000 0 -6808241.412 -24564887.627 277174.343 10 0 59287 32400.00000 0 -6948507.007 -24347036.799 -2956160.674 10 0 59287 33300.00000 0 -6929769.878 -23751392.680 -6131949.741 10 0 59287 34200.00000 0 -6704812.498 -22810965.472 -9188363.019 10 0 59287 35100.00000 0 -6234614.780 -21569696.963 -12065893.564 10 0 59287 36000.00000 0 -5490260.205 -20080587.474 -14708525.289 10 0 59287 36900.00000 0 -4454416.849 -18403460.226 -17064831.158 10 0 59287 37800.00000 0 -3122329.364 -16602458.111 -19088979.497 10 0 59287 38700.00000 0 -1502278.878 -14743379.008 -20741628.396 10 0 59287 39600.00000 0 384509.438 -12890962.414 -21990690.615 10 0 59287 40500.00000 0 2504507.962 -11106241.731 -22811954.390 10 0 59287 41400.00000 0 4813051.007 -9444073.371 -23189548.542 10 0 59287 42300.00000 0 7255973.544 -7950945.963 -23116243.471 10 0 59287 43200.00000 0 9771656.071 -6663160.658 -22593582.996 10 0 59287 44100.00000 0 12293390.538 -5605457.618 -21631845.209 10 0 59287 45000.00000 0 14751968.860 -4790144.779 -20249833.791 10 0 59287 45900.00000 0 17078386.496 -4216763.739 -18474504.406 10 0 59287 46800.00000 0 19206548.891 -3872304.968 -16340433.854 10 0 59287 47700.00000 0 21075868.459 -3731961.617 -13889142.597 10 0 59287 48600.00000 0 22633644.535 -3760388.564 -11168284.009 10 0 59287 49500.00000 0 23837127.806 -3913412.290 -8230716.158 10 0 59287 50400.00000 0 24655183.817 -4140118.420 -5133474.287 10 0 59287 51300.00000 0 25069487.065 -4385227.967 -1936663.955 10 0 59287 52200.00000 0 25075196.672 -4591661.407 1297703.706 10 0 59287 53100.00000 0 24681086.330 -4703181.973 4506911.899 10 0 59287 54000.00000 0 23909123.944 -4667006.374 7628750.131 10 0 59287 54900.00000 0 22793519.293 -4436272.648 10602714.880 10 0 59287 55800.00000 0 21379280.139 -3972261.049 13371175.932 10 0 59287 56700.00000 0 19720337.469 -3246274.229 15880486.237 10 0 59287 57600.00000 0 17877318.300 -2241097.329 18082014.424 10 0 59287 58500.00000 0 15915058.896 -951976.113 19933080.560 10 0 59287 59400.00000 0 13899961.719 612928.678 21397777.864 10 0 59287 60300.00000 0 11897305.633 2432630.980 22447665.157 10 0 59287 61200.00000 0 9968620.744 4473950.704 23062317.239 10 0 59287 62100.00000 0 8169236.323 6692662.088 23229722.932 10 0 59287 63000.00000 0 6546103.132 9035113.172 22946523.188 10 0 59287 63900.00000 0 5135980.210 11440250.825 22218084.393 10 0 59287 64800.00000 0 3964061.142 13841968.987 21058404.903 10 0 59287 65700.00000 0 3043096.792 16171684.027 19489855.681 10 0 59287 66600.00000 0 2373051.080 18361031.289 17542758.965 10 0 59287 67500.00000 0 1941304.197 20344571.345 15254811.902 10 0 59287 68400.00000 0 1723394.867 22062393.533 12670365.034 10 0 59287 69300.00000 0 1684270.591 23462507.888 9839568.660 10 0 59287 70200.00000 0 1779993.245 24502924.966 6817402.789 10 0 59287 71100.00000 0 1959827.873 25153335.693 3662609.117 10 0 59287 72000.00000 0 2168625.996 25396319.740 436545.837 10 0 59287 72900.00000 0 2349401.812 25228030.788 -2798012.020 10 0 59287 73800.00000 0 2445991.128 24658329.042 -5978102.661 10 0 59287 74700.00000 0 2405679.050 23710354.876 -9041812.898 10 0 59287 75600.00000 0 2181683.610 22419561.343 -11929493.638 10 0 59287 76500.00000 0 1735388.508 20832246.391 -14584930.689 10 0 59287 77400.00000 0 1038229.004 19003646.994 -16956446.910 10 0 59287 78300.00000 0 73149.780 16995675.984 -18997913.553 10 0 59287 79200.00000 0 -1164428.009 14874397.391 -20669650.606 10 0 59287 80100.00000 0 -2666172.185 12707346.976 -21939198.443 10 0 59287 81000.00000 0 -4410956.561 10560810.790 -22781945.992 10 0 59287 81900.00000 0 -6365525.142 8497175.917 -23181603.696 10 0 59287 82800.00000 0 -8485675.984 6572464.144 -23130512.686 10 0 59287 83700.00000 0 -10717915.409 4834151.053 -22629784.957 10 0 59287 84600.00000 0 -13001513.622 3319360.656 -21689272.577 10 0 59287 85500.00000 0 -15270875.972 2053509.719 -20327367.226 99